Location: Berkenrode
(52.3500°N, 4.6167°E)
Time: 02:19:15
(UTC+00:00)

Daily predictions for brighter satellites

Satellite Brightness Start Highest point End
(mag) Time Altitude Azimuth Time Altitude Azimuth Time Altitude Azimuth
Cosmos 2263 Rocket 4.1 03:01:26 26° E 03:01:26 26° E 03:05:15 10° NE
SJ 16-02 4.4 03:08:47 13° E 03:08:47 13° E 03:10:37 10° ENE
ATLAS 3B R/B 3.1 03:30:35 58° NE 03:30:35 58° NE 03:37:31 10° ESE
Lacrosse 4 Rocket 4.4 03:38:11 11° SE 03:38:11 11° SE 03:38:24 10° SE
ALOS 3.5 03:48:30 10° NNE 03:52:54 39° E 03:53:16 38° ESE
Cosmos 2227 Rocket 3.9 03:57:13 22° N 03:57:13 22° N 03:59:30 10° NNE
Cosmos 2344 4.2 03:53:01 43° NW 03:56:41 76° NE 04:08:54 10° SE
NOSS 3-2 (C) 4.5 04:00:07 46° SSW 04:00:07 46° SSW 04:06:33 10° SSE
CENTAUR R/B 3.4 04:01:35 50° SSW 04:01:35 50° SSW 04:08:51 10° SSE
Cosmos 2227 4.4 04:01:37 68° ESE 04:01:37 68° ESE 04:07:04 10° NE
NOSS 3-4 (A) 4.1 04:00:50 39° SSE 04:02:32 50° SE 04:08:38 10° NE
NOSS 3-4 (C) 4.1 04:00:54 38° S 04:02:40 49° SE 04:08:46 10° NE
ARGOS Delta rocket 4.5 03:58:52 10° NNE 04:04:00 57° E 04:04:43 51° SE
USA 306 4.2 04:10:52 38° ENE 04:10:52 38° ENE 04:13:37 10° ENE
SL-4 R/B 3.6 04:15:02 32° E 04:15:02 32° E 04:17:10 10° E
Cosmos 1782 4.2 04:16:34 36° ESE 04:16:34 36° ESE 04:19:21 10° SSE
SKYMED 2 4.3 04:14:52 10° SE 04:19:05 52° ENE 04:19:24 50° NE
Cosmos 1680 Rocket 3.5 04:20:02 73° NNE 04:20:26 79° ENE 04:25:45 10° SSE
ATLAS 2AS CENTAUR R/B 3.5 04:15:31 15° SSW 04:22:14 60° SE 04:29:53 10° NE
Cosmos 2297 Rocket 3.9 04:30:30 20° N 04:30:30 20° N 04:33:14 10° NNE
ATLAS 5 CENTAUR R/B 2.9 04:31:18 37° NE 04:31:18 37° NE 04:32:50 10° NE
ATLAS CENTAUR R/B 2.1 04:32:06 45° ESE 04:32:06 45° ESE 04:34:56 10° SE
ADEOS 3.7 04:27:35 10° NNE 04:32:51 74° ESE 04:38:03 10° S
RESURS DK-1 4.5 04:29:26 10° SSE 04:32:56 27° ESE 04:36:26 10° NE
Lacrosse 5 2.7 04:32:03 32° S 04:33:49 45° SE 04:38:39 10° ENE
Cosmos 1328 Rocket 4.4 04:35:39 39° S 04:35:39 39° S 04:38:29 10° S
ERBS 4.2 04:38:12 27° NE 04:38:12 27° NE 04:39:51 10° ENE
CZ-2C R/B 4.4 04:33:31 10° N 04:34:19 15° N 04:34:19 15° N
Cosmos 2112 Rocket 3.9 04:38:53 53° NNW 04:40:12 86° WSW 04:45:34 10° SSE
Gbstr 26 Del rocket 4.0 04:43:34 30° SSE 04:43:34 30° SSE 04:46:01 10° SE
Cosmos 1745 Rocket 4.4 04:44:17 43° NW 04:44:17 43° NW 04:49:33 10° N
Cosmos 2263 Rocket 2.1 04:43:11 58° WSW 04:44:04 67° NW 04:49:48 10° NNE
SJ 16-02 1.2 04:45:52 65° SSW 04:46:30 89° SE 04:50:59 10° NNE
Meteor 1-26 Rocket 4.2 04:48:58 32° NNW 04:51:34 62° W 04:57:07 10° S
Cosmos 1898 Rocket 4.3 04:48:58 10° S 04:54:08 54° ESE 04:59:21 10° NNE
CZ-2C R/B 4.4 04:52:32 10° ESE 04:57:11 30° ENE 05:01:46 10° N
Cosmos 1766 Rocket 3.6 04:58:04 58° NW 04:58:04 58° NW 05:02:09 10° N
FENGYUN 3A 3.6 04:52:20 10° N 04:57:44 66° WNW 05:03:04 10° SSW
Cosmos 1743 Rocket 4.5 04:57:24 10° S 05:01:43 51° E 05:06:04 10° NNE
Cosmos 2082 Rocket 4.0 04:57:54 11° NNW 05:02:10 25° NE 05:06:49 10° E
Cosmos 2181 Rocket 4.0 04:56:36 10° NNW 05:02:40 55° W 05:08:37 10° SSW
Cosmos 1408 Rocket 3.5 04:59:12 10° S 05:03:40 88° W 05:08:09 10° N
USA 307 2.9 05:05:08 56° NW 05:05:53 71° N 05:10:12 10° E
Okean 3 Rocket 4.2 05:07:16 37° NNW 05:07:16 37° NNW 05:10:24 10° N
COSMO-SKYMED 1 2.5 05:02:50 10° S 05:07:07 58° W 05:07:59 48° NW
Cosmos 1709 Rocket 4.2 05:02:27 10° SSW 05:08:38 50° WNW 05:14:50 10° N
Cosmos 1937 Rocket 4.2 05:06:11 10° S 05:11:11 54° ESE 05:16:16 10° NNE
USA 308 2.9 05:11:14 50° WNW 05:12:15 72° N 05:16:34 10° E
Lacrosse 4 Rocket 3.6 05:14:32 14° SSW 05:14:32 14° SSW 05:15:31 10° SSW
Cosmos 1833 Rocket 3.9 05:08:13 13° NNW 05:12:53 38° NE 05:18:06 10° ESE
Meteor 2-3 Rocket 3.8 05:10:10 10° SSW 05:15:50 58° WNW 05:21:35 10° N
CZ-4B R/B 3.1 05:11:52 10° NNE 05:16:24 89° ESE 05:20:50 10° SSW
CZ-4C R/B 2.4 05:11:35 10° SSW 05:16:38 69° SE 05:22:46 10° NE
Meteor 1-27 Rocket 4.4 05:11:23 10° N 05:17:04 58° ENE 05:22:49 10° SSE
MOS 1 Rocket 3.5 05:12:39 10° SSE 05:17:31 80° ENE 05:22:44 10° NNW
Meteor 1-10 Rocket 4.2 05:13:34 10° NNW 05:19:10 87° ENE 05:24:47 10° SSE
FALCON 9 DEB 4.1 05:18:33 27° SSW 05:19:46 39° SSE 05:22:49 10° E
Cosmos 1689 Rocket 4.1 05:17:19 10° S 05:18:12 18° SSW 05:18:12 18° SSW
ATLAS 3B R/B 3.0 05:17:51 28° WNW 05:21:14 50° WSW 05:28:05 10° SSE
COSMOS 2406 4.0 05:18:03 13° NNW 05:23:05 50° NE 05:28:41 10° SE
Aureole 2 Rocket 4.0 05:22:48 10° SSE 05:25:00 26° ESE 05:27:13 10° NE
YAOGAN 6 3.9 05:23:45 10° NNE 05:27:06 40° E 05:30:24 10° S
Cosmos 1862 3.4 05:24:21 10° S 05:28:24 77° E 05:32:29 10° NNE
Genesis I 3.6 05:25:34 10° SSW 05:29:20 62° SE 05:33:10 10° NE
deb Chang Zheng 4 3.7 05:26:00 10° N 05:30:11 47° WNW 05:34:21 10° SW
ALOS 2.9 05:26:05 10° N 05:30:16 33° WNW 05:31:45 27° W
PSLV R/B 4.1 05:32:06 10° NNE 05:36:00 66° ESE 05:39:46 10° S
Cosmos 990 Rocket 3.9 05:31:34 10° SW 05:36:48 69° WNW 05:42:05 10° NNE
Cosmos 2327 Rocket 4.5 05:30:56 10° S 05:37:02 84° E 05:43:10 10° NNE
METEOR-M 4.5 05:32:42 10° N 05:37:41 41° WNW 05:42:40 10° SW
ASTRO F (AKARI) 4.2 05:34:54 10° NNE 05:38:01 84° ESE 05:41:08 10° SSW
Cosmos 2074 Rocket 3.9 05:32:18 10° SSW 05:38:28 69° WNW 05:44:42 10° N
Meteor 1-31 Rocket 3.5 05:36:33 10° N 05:39:57 30° WNW 05:40:29 29° W
Cosmos 2227 Rocket 4.0 05:39:03 14° NNW 05:40:10 14° NNW 05:43:11 10° NNE
USA 305 2.9 05:38:55 29° WNW 05:41:05 81° NNE 05:45:24 10° E
Cosmos 405 Rocket 2.5 05:40:30 10° SSW 05:44:12 84° WNW 05:48:00 10° NNE
SL-24 DEB 4.3 05:39:51 10° S 05:44:38 85° E 05:49:27 10° N
Cosmos 1812 2.9 05:42:51 16° NNW 05:45:41 48° W 05:49:24 10° S
Cosmos 2228 Rocket 3.2 05:43:52 10° NNW 05:48:11 52° W 05:52:27 10° S
EO 1 Delta rocket 4.0 05:43:40 10° S 05:48:27 50° W 05:52:57 10° NNW
Cosmos 1515 Rocket 4.4 05:46:48 22° NW 05:48:34 28° W 05:52:22 10° SSW
USA 306 2.9 05:47:01 25° WNW 05:49:31 84° NNE 05:53:50 10° ESE
Cosmos 1782 4.3 05:52:15 18° WSW 05:52:15 18° WSW 05:54:20 10° SW
SL-4 R/B 1.8 05:50:37 23° W 05:52:55 78° S 05:56:34 10° ESE
NOSS 3-4 (A) 3.6 05:48:19 14° WSW 05:53:27 53° NNW 05:59:54 10° NE
NOSS 3-4 (C) 3.6 05:48:24 14° WSW 05:53:34 53° NNW 06:00:02 10° NE
Cosmos 2184 Rocket 4.1 05:49:52 10° SSW 05:56:05 56° WNW 06:02:22 10° N
USA-17 4.3 05:52:47 10° SW 05:56:16 78° SE 05:59:19 10° NE
USA 234 4.5 05:51:11 10° ENE 05:57:23 44° SE 06:03:34 10° SSW
Spot 2 4.5 05:53:05 10° NNE 05:58:17 86° WNW 06:03:23 10° SSW
FALCON 9 DEB 3.2 05:56:58 15° WSW 05:59:30 68° SSE 06:02:43 10° ENE
NOSS 3-1 (C) 4.5 05:54:50 13° NW 06:00:57 53° NNE 06:08:58 10° ESE
FALCON 9 DEB 3.1 05:59:52 21° W 06:02:02 81° SSW 06:05:30 10° ESE
Cosmos 1844 Rocket 2.6 05:56:48 10° SW 06:02:27 71° NW 06:08:09 10° NNE
Cosmos 1707 Rocket 3.5 06:00:53 10° NNW 06:05:16 84° W 06:09:36 10° S
MOS 1-B 4.5 06:01:19 10° NNE 06:07:11 84° ESE 06:13:01 10° SSW
Meteor PRIRODA 4.5 06:05:20 10° N 06:08:37 29° WNW 06:11:51 10° SW
ATLAS CENTAUR R/B 2.9 06:08:18 15° W 06:09:32 17° WSW 06:12:05 10° SSW
NOAA 6 4.0 06:05:13 10° NNE 06:10:22 83° WNW 06:15:29 10° SSW
COSMOS 2455 3.3 06:04:35 10° SSW 06:10:34 69° ESE 06:16:35 10° NE
RESURS DK-1 2.7 06:06:46 10° SW 06:10:47 45° NW 06:14:49 10° NNE
OPS 8737 4.3 06:10:36 16° NW 06:12:56 79° SW 06:16:49 10° SE
H-2A R/B 3.2 06:09:19 10° N 06:13:01 40° WNW 06:16:40 10° SW
ERBS 3.1 06:11:05 17° WNW 06:13:09 35° N 06:16:15 10° ENE
EP 3 3.3 06:11:51 13° WSW 06:13:26 62° NW 06:15:20 10° NE
ATLAS 2AS CENTAUR R/B 3.2 06:05:37 10° WSW 06:13:28 57° NNW 06:21:04 10° NE
USA 290 4.0 06:11:11 10° N 06:14:09 29° NE 06:17:04 10° ESE
Cosmos 2297 Rocket 4.2 06:13:04 10° NNW 06:15:10 12° N 06:17:15 10° NNE
CZ-4B DEB 4.1 06:10:01 10° NNE 06:15:30 77° WNW 06:20:58 10° SSW
Cosmos 1500 Rocket 4.1 06:11:41 10° SW 06:15:38 35° WNW 06:19:39 10° N
Cosmos 1437 Rocket 3.3 06:12:20 10° NNW 06:15:50 35° W 06:19:17 10° SSW
Cosmos 1844 3.6 06:10:49 10° SW 06:16:21 69° NW 06:21:58 10° NNE
Lacrosse 5 1.9 06:11:38 10° WSW 06:16:42 68° NNW 06:21:46 10° ENE
Okean O Rocket 1.9 06:14:40 10° NNE 06:19:08 75° ESE 06:23:35 10° S
Cosmos 372 Rocket 3.9 06:14:45 10° SSW 06:19:51 84° WNW 06:25:00 10° NNE
Cosmos 1242 Rocket 3.0 06:17:17 10° N 06:20:55 65° ENE 06:24:33 10° SSE
PAYLOAD B 4.2 06:16:24 10° NNE 06:21:57 81° WNW 06:27:26 10° SSW
SMAP 3.1 06:18:08 10° NNE 06:22:50 90° ESE 06:27:30 10° SSW
Geosat 4.0 06:18:09 10° SSE 06:23:11 77° WSW 06:28:15 10° NNW
SJ 16-02 2.9 06:22:57 10° W 06:25:46 17° NW 06:28:43 10° N
USA 81 4.0 06:20:44 10° S 06:26:00 83° W 06:31:19 10° N
Cosmos 2263 Rocket 3.5 06:24:56 10° W 06:29:07 21° NNW 06:33:24 10° NNE
ATLAS 5 CENTAUR R/B 3.0 06:28:56 10° SSW 06:32:49 41° SE 06:37:10 10° NE
FALCON 9 DEB 2.9 06:29:38 10° WSW 06:32:50 87° S 06:36:04 10° E
FALCON 9 DEB 2.9 06:29:40 10° WSW 06:32:54 88° SSE 06:36:08 10° E
Cosmos 1470 Rocket 4.5 06:30:13 10° S 06:34:30 53° E 06:38:47 10° NNE
Sich 1 3.2 06:31:56 10° SSW 06:36:15 51° WNW 06:40:37 10° N
Cosmos 2218 Rocket 4.2 06:30:13 10° S 06:36:29 81° E 06:42:42 10° NNE
Cosmos 1898 Rocket 4.2 06:31:43 10° WSW 06:36:30 32° NW 06:41:18 10° NNE
AQUARIUS 4.1 06:32:05 10° NNE 06:36:35 76° WNW 06:41:04 10° SSW
H-2A R/B 2.6 06:33:22 10° N 06:37:03 43° WNW 06:40:41 10° SW
Envisat 3.2 06:32:13 10° N 06:37:06 48° WNW 06:41:58 10° SW
CZ-2C R/B 2.8 06:31:52 10° S 06:37:14 56° W 06:42:32 10° NNW
Cosmos 2366 rocket 4.2 06:34:31 10° S 06:40:51 83° E 06:47:10 10° NNE
CORIOLIS 4.2 06:36:28 10° NNE 06:41:57 84° WNW 06:47:24 10° SSW
Cosmos 1602 4.3 06:39:05 10° S 06:42:57 64° E 06:46:53 10° NNE
USA 307 3.2 06:41:42 10° WNW 06:45:59 64° SSW 06:50:15 10° SE
CZ-4B R/B 3.1 06:41:30 10° NNE 06:46:50 71° WNW 06:52:12 10° SSW
Cosmos 2082 Rocket 2.3 06:41:21 10° NNW 06:47:05 86° ENE 06:52:50 10° SSE
NOAA 11 4.3 06:43:02 10° NNE 06:48:34 90° WSW 06:54:04 10° SSW
CZ-4 R/B 3.2 06:45:32 10° NNE 06:49:28 38° E 06:53:25 10° SSE
Cosmos 1862 Rocket 3.7 06:46:57 10° NNW 06:51:21 57° W 06:55:41 10° S
